CW7412 Weather Reports


time (UTC)temp
F
wind
direction
speed
knots
gust
knots
rain 1hr
in
rain 24hr
in
rain mn
in
humidity
%
barometer
mb
20260509000204 69 315 0.0 0.0 0.00 0.00 0.00 31 1012.2
20260508234704 70 305 0.0 1.7 0.00 0.00 0.00 30 1012.0
20260508234204 70 270 0.9 2.6 0.00 0.01 0.00 30 1012.0
20260508230704 71 123 1.7 4.3 0.00 0.01 0.00 30 1012.3
20260508230204 72 269 2.6 5.2 0.00 0.01 0.00 30 1012.4
20260508224204 73 59 1.7 5.2 0.00 0.01 0.00 29 1012.7
20260508223704 72 305 1.7 5.2 0.00 0.01 0.00 31 1012.7
20260508223204 73 152 2.6 5.2 0.00 0.01 0.00 29 1012.7
20260508221704 72 103 1.7 4.3 0.00 0.01 0.00 28 1012.7
20260508221204 73 118 0.0 2.6 0.00 0.01 0.00 28 1012.6
20260508220704 72 85 1.7 4.3 0.00 0.01 0.00 28 1012.6
20260508213704 72 162 2.6 5.2 0.00 0.01 0.00 27 1012.4
20260508213204 72 238 2.6 6.1 0.00 0.01 0.00 27 1012.3
20260508201704 72 97 4.3 7.0 0.00 0.01 0.00 30 1013.0
20260508200704 71 22 4.3 5.2 0.00 0.01 0.00 31 1013.3
20260508200204 72 79 4.3 6.1 0.00 0.01 0.00 27 1013.3
20260508191704 70 135 1.7 5.2 0.00 0.01 0.00 30 1014.3
20260508191204 70 121 4.3 7.8 0.00 0.01 0.00 29 1014.8
20260508190704 70 108 4.3 7.8 0.00 0.01 0.00 30 1014.8
20260508190204 70 74 4.3 7.0 0.00 0.01 0.00 32 1014.8
20260508184204 70 120 4.3 10.4 0.00 0.01 0.00 33 1015.0
20260508183704 70 85 5.2 7.0 0.00 0.01 0.00 30 1015.1
20260508181204 69 133 5.2 7.8 0.00 0.01 0.00 31 1015.5
20260508180704 69 169 3.5 5.2 0.00 0.01 0.00 30 1015.5
20260508180204 68 15 0.9 7.0 0.00 0.01 0.00 33 1015.5
20260508174704 68 80 3.5 7.0 0.00 0.01 0.00 33 1015.8
20260508174204 69 113 2.6 7.0 0.00 0.01 0.00 35 1015.8
20260508173204 67 50 4.3 7.0 0.00 0.01 0.00 31 1016.3
20260508171704 69 57 5.2 7.0 0.00 0.01 0.00 32 1016.3
20260508171204 69 82 6.1 8.7 0.00 0.01 0.00 33 1016.5
20260508163204 66 194 2.6 7.8 0.00 0.01 0.00 41 1017.1
20260508161204 65 60 1.7 4.3 0.00 0.01 0.00 39 1017.5
20260508160204 65 75 1.7 5.2 0.00 0.01 0.00 39 1017.5
20260508154204 64 35 3.5 5.2 0.00 0.01 0.00 36 1017.8
20260508153704 64 60 4.3 5.2 0.00 0.01 0.00 41 1017.8
20260508153204 64 58 4.3 8.7 0.00 0.01 0.00 42 1017.8
20260508150704 62 112 4.3 5.2 0.00 0.01 0.00 47 1018.0
20260508144204 60 157 1.7 5.2 0.00 0.01 0.00 58 1018.1
20260508143704 60 149 2.6 4.3 0.00 0.01 0.00 59 1018.1
20260508143204 60 180 0.0 2.6 0.00 0.01 0.00 63 1018.1
20260508141204 57 233 0.9 2.6 0.00 0.01 0.00 68 1018.0
20260508133703 53 140 0.0 0.0 0.00 0.01 0.00 73 1017.8
20260508130704 49 136 1.7 2.6 0.00 0.01 0.00 85 1017.8
20260508123704 45 101 0.0 0.0 0.00 0.01 0.00 91 1017.7
20260508123204 44 113 0.0 0.0 0.00 0.01 0.00 92 1017.7
20260508121704 40 270 0.0 0.0 0.00 0.01 0.00 95 1017.6
20260508120204 38 112 0.0 0.0 0.00 0.01 0.00 95 1017.7
20260508113703 36 135 0.0 0.0 0.00 0.01 0.00 95 1017.4
20260508111204 37 158 0.0 0.0 0.00 0.01 0.00 95 1017.0
20260508110703 37 135 0.0 0.0 0.00 0.01 0.00 95 1017.0
20260508104704 36 311 0.0 0.0 0.00 0.01 0.00 95 1016.8
20260508104204 36 346 0.0 0.0 0.00 0.01 0.00 95 1016.8
20260508101704 37 122 0.0 0.0 0.00 0.01 0.00 95 1016.5
20260508100204 37 243 0.0 0.0 0.00 0.01 0.00 95 1016.3
20260508094204 37 135 0.0 0.0 0.00 0.01 0.00 95 1016.3
20260508093704 37 327 0.0 0.0 0.00 0.01 0.00 95 1016.3
20260508093204 37 270 0.0 0.0 0.00 0.01 0.00 95 1016.3
20260508091703 37 124 0.0 0.0 0.00 0.01 0.00 95 1016.3
20260508090204 38 112 0.0 0.0 0.00 0.02 0.00 95 1016.3
20260508084704 39 237 0.0 0.0 0.00 0.02 0.00 95 1016.3
20260508084204 39 270 0.0 0.0 0.00 0.02 0.00 95 1016.3
20260508083704 39 270 0.0 0.0 0.00 0.02 0.00 95 1016.3
20260508080703 39 292 0.0 0.0 0.00 0.02 0.00 95 1016.5
20260508073704 39 12 0.0 0.0 0.00 0.02 0.00 95 1016.5
20260508073204 39 45 0.0 0.0 0.00 0.02 0.00 95 1016.5
20260508071204 39 125 0.0 0.0 0.00 0.02 0.00 95 1016.6
20260508063204 40 270 0.0 0.0 0.00 0.02 0.00 95 1016.6
20260508061704 40 248 0.0 0.0 0.00 0.02 0.00 95 1016.3
20260508060704 40 225 0.0 0.0 0.00 0.02 0.00 95 1016.5
20260508054204 41 202 0.0 0.0 0.00 0.02 0.00 92 1016.7
20260508053704 41 158 0.0 0.0 0.00 0.02 0.00 92 1016.7
20260508053204 41 110 0.0 0.0 0.00 0.02 0.00 92 1016.8
20260508051204 42 202 0.0 0.0 0.00 0.02 0.00 93 1016.8
20260508050704 42 225 0.0 0.0 0.00 0.02 0.00 93 1016.8
20260508044704 42 261 0.0 0.0 0.00 0.02 0.00 93 1016.7
20260508043704 42 265 0.0 0.0 0.00 0.02 0.00 93 1016.6
20260508040704 43 112 0.0 0.0 0.00 0.02 0.00 86 1016.3
20260508040204 43 112 0.0 0.0 0.00 0.02 0.00 86 1016.3
20260508034704 44 225 0.0 0.0 0.00 0.02 0.02 88 1016.2
20260508033704 44 242 0.0 0.0 0.00 0.02 0.02 83 1016.1
20260508031204 46 270 0.0 0.0 0.00 0.04 0.02 78 1016.3
20260508030704 46 292 0.0 0.0 0.00 0.04 0.02 81 1016.3
20260508030204 46 273 0.0 0.0 0.00 0.06 0.02 79 1016.3
20260508024704 47 251 0.0 0.0 0.00 0.12 0.02 81 1016.0
20260508024204 47 248 0.0 0.0 0.00 0.12 0.02 81 1016.0
20260508023704 47 226 0.0 0.0 0.00 0.12 0.02 76 1015.8
20260508021704 48 242 0.0 0.0 0.00 0.12 0.02 82 1015.8
20260508020704 48 270 0.0 0.0 0.00 0.12 0.02 79 1015.7
20260508020204 48 270 0.0 0.0 0.00 0.12 0.02 76 1015.6
20260508014704 49 270 0.0 0.0 0.00 0.12 0.02 77 1015.2
20260508014204 49 269 0.0 0.0 0.00 0.13 0.02 72 1015.2
20260508013704 50 244 0.0 0.0 0.00 0.14 0.02 72 1015.0
20260508011204 51 258 0.0 0.0 0.00 0.14 0.02 71 1014.7
20260508004204 55 266 0.0 0.0 0.01 0.18 0.02 60 1014.5
20260508003703 56 243 0.0 0.0 0.01 0.20 0.02 60 1014.3
20260508001704 60 202 0.0 0.0 0.01 0.22 0.02 57 1014.3